Location: Newark
(41.0400°S, 62.7845°W)
Time: 02:40:34
(UTC+00:00)

Vanguard 2 Rocket - Pass Details

Date: 29 November 2021
Orbit: 554 x 3325 km, 32.9° (Epoch: 21 January)

Event Time Altitude Azimuth Distance (km) Brightness Sun altitude
Rises 08:38:07 0° 329° (NNW) 7,243 10.9 -0.2°
Reaches altitude 10° 08:44:21 10° 338° (NNW) 6,033 10.6 0.9°
Maximum altitude 08:58:03 28° 27° (NNE) 3,904 10.2 3.2°
Drops below altitude 10° 09:07:49 10° 79° (E) 4,267 11.4 4.8°
Sets 09:11:14 0° 91° (E) 4,881 12.1 5.4°
